Weather History for Lihue, HI

Change the Weather History Date:

Tuesday, January 29, 2013

  Actual Average Record
Temperature  
Mean Temperature 69 °F 72 °F  
Max Temperature 76 °F 78 °F 83 °F (1961)
Min Temperature 62 °F 65 °F 56 °F (1971)
Degree Days  
Heating Degree Days 0 0  
Month to date heating degree days 0 0  
Since 1 July heating degree days 0 0  
Cooling Degree Days 4 7  
Month to date cooling degree days 180 203  
Year to date cooling degree days 180 203  
Growing Degree Days 18 (Base 50)    
Moisture  
Dew Point 63 °F    
Average Humidity 81    
Maximum Humidity 93    
Minimum Humidity 69    
Precipitation  
Precipitation 0.01 in 0.11 in 1.60 in (1957)
Month to date precipitation 5.87 3.51  
Year to date precipitation 5.87 3.51  
Snow  
Snow 0.00 in - - ()
Month to date snowfall 0.0  
Since 1 July snowfall 0.0  
Snow Depth 0.00 in    
Sea Level Pressure  
Sea Level Pressure 29.99 in    
Wind  
Wind Speed 10 mph (NNW)    
Max Wind Speed 21 mph    
Max Gust Speed 26 mph    
Visibility 10 miles    
Events Rain    
T = Trace of Precipitation, MM = Missing Value Source: NWS Daily Summary

Daily Weather History Graph

Daily Weather History Graph

Search for Another Location

Airport:

Trip Planner

Search our weather history database for the weather conditions in past years. The results will help you decide how hot, cold, wet, or windy it might be!

Date:

Astronomy

Jan. 29, 2013 Rise Set
Actual Time 7:16 AM HST 6:24 PM HST
Civil Twilight 6:53 AM HST 6:48 PM HST
Nautical Twilight 6:26 AM HST 7:15 PM HST
Astronomical Twilight 5:59 AM HST 7:41 PM HST
Moon 9:03 PM HST (1/29) 8:45 AM HST (1/29)
Length of Visible Light 11h 55m
Length of Day
11h 08m
Waning Gibbous, 92% of the Moon is Illuminated
Jan 29
Waning Gibbous
Feb 3
Last Quarter
Feb 9
New
Feb 17
First Quarter
Feb 25
Full

Hourly Weather History & Observations

Time (HST) Temp. Dew Point Humidity Pressure Visibility Wind Dir Wind Speed Gust Speed Precip Events Conditions
12:05 AM 68.0 °F 64.4 °F 88% 29.98 in 10.0 mi SW 5.8 mph - 0.00 in Rain Light Rain
12:49 AM 66.2 °F 64.4 °F 94% 29.97 in 7.0 mi West 5.8 mph - 0.01 in Rain Light Rain
12:53 AM 66.7 °F 64.0 °F 91% 29.97 in 8.0 mi West 6.9 mph - 0.01 in Rain Light Rain
1:04 AM 66.2 °F 62.6 °F 88% 29.97 in 10.0 mi West 4.6 mph - 0.00 in   Overcast
1:53 AM 65.5 °F 63.0 °F 92% 29.96 in 10.0 mi WNW 6.9 mph - 0.00 in   Partly Cloudy
2:53 AM 63.9 °F 61.0 °F 90% 29.95 in 10.0 mi West 5.8 mph - N/A   Clear
3:53 AM 63.3 °F 60.1 °F 89% 29.95 in 10.0 mi WNW 6.9 mph - N/A   Clear
4:53 AM 63.0 °F 60.1 °F 90% 29.95 in 10.0 mi West 6.9 mph - N/A   Clear
5:53 AM 62.1 °F 59.0 °F 90% 29.96 in 10.0 mi WNW 4.6 mph - N/A   Scattered Clouds
6:53 AM 62.1 °F 59.0 °F 90% 29.97 in 10.0 mi West 5.8 mph - N/A   Clear
7:53 AM 64.0 °F 61.0 °F 90% 29.99 in 10.0 mi West 6.9 mph - N/A   Overcast
8:53 AM 68.0 °F 64.0 °F 87% 30.00 in 10.0 mi West 5.8 mph - N/A   Partly Cloudy
9:53 AM 75.0 °F 66.0 °F 73% 30.01 in 10.0 mi NNE 9.2 mph - N/A   Clear
10:53 AM 75.9 °F 66.0 °F 71% 30.00 in 10.0 mi NE 11.5 mph - N/A   Clear
11:53 AM 75.0 °F 64.9 °F 71% 29.99 in 10.0 mi NNE 13.8 mph - N/A   Clear
12:53 PM 75.9 °F 66.0 °F 71% 29.97 in 10.0 mi NE 18.4 mph - N/A   Clear
1:53 PM 75.0 °F 64.9 °F 71% 29.94 in 10.0 mi NNE 16.1 mph 23.0 mph N/A   Mostly Cloudy
2:53 PM 75.0 °F 66.0 °F 73% 29.94 in 10.0 mi NNE 17.3 mph 24.2 mph N/A   Scattered Clouds
3:53 PM 73.0 °F 64.0 °F 73% 29.95 in 10.0 mi NNE 17.3 mph - N/A   Scattered Clouds
4:53 PM 72.0 °F 64.0 °F 76% 29.96 in 10.0 mi NNE 13.8 mph 24.2 mph N/A   Scattered Clouds
5:53 PM 72.0 °F 64.0 °F 76% 29.98 in 10.0 mi NNE 13.8 mph - N/A   Scattered Clouds
6:48 PM 71.6 °F 64.4 °F 78% 30.00 in 10.0 mi NNE 12.7 mph - N/A   Mostly Cloudy
6:53 PM 72.0 °F 64.9 °F 78% 30.00 in 10.0 mi NNE 11.5 mph - N/A   Mostly Cloudy
7:41 PM 71.6 °F 64.4 °F 78% 30.02 in 10.0 mi NNE 15.0 mph - N/A   Scattered Clouds
7:53 PM 71.1 °F 64.0 °F 78% 30.03 in 10.0 mi NNE 11.5 mph - N/A   Scattered Clouds
8:53 PM 69.1 °F 63.0 °F 81% 30.05 in 10.0 mi North 6.9 mph - N/A   Scattered Clouds
9:53 PM 66.9 °F 62.1 °F 84% 30.05 in 10.0 mi NW 4.6 mph - N/A   Partly Cloudy
10:53 PM - - N/A% 30.06 in 10.0 mi WNW 3.5 mph - N/A   Partly Cloudy
11:53 PM 66.0 °F 61.0 °F 84% 30.05 in 10.0 mi WNW 3.5 mph - N/A   Partly Cloudy